Regional Weather Roundup
Issued by NWS Newport/Morehead, NC

Current Version | Previous Version | Graphics & Text | Print | Product List | Glossary On
Versions: 1 2 3 4 5 6 7 8 9 10 11 12 13 14 15 16 17 18 19 20 21 22 23 24 25 26 27 28 29 30 31 32 33 34 35 36 37 38 39 40 41 42 43 44 45 46 47 48 49 50
106 ASUS42 KMHX 141425 RWRMHX WEATHER ROUNDUP FOR EASTERN NORTH CAROLINA NATIONAL WEATHER SERVICE NEWPORT/MOREHEAD CITY NC 900 AM EST SUN FEB 14 2016 NOTE: "FAIR" INDICATES FEW OR NO CLOUDS BELOW 12,000 FEET WITH NO SIGNIFICANT WEATHER AND/OR OBSTRUCTIONS TO VISIBILITY NCZ015>017-031-032-045>047-102-103-141500- NORTH COAST CITY SKY/WX TMP DP RH WIND PRES REMARKS EDENTON SUNNY 22 1 39 N7 30.59R ELIZABETH CITY SUNNY 20 3 48 N17 30.58R WCI 5 KITTY HAWK PTSUNNY 24 9 52 N15 30.53R WCI 11 MANTEO MOSUNNY 22 10 61 N14G21 30.56R WCI 9 $$ NCZ045>047-081-094-103-104-141500- CENTRAL COAST CITY SKY/WX TMP DP RH WIND PRES REMARKS FRISCO MOSUNNY 25 12 58 N9G24 30.54R SWANQUARTER N/A 21 N/A N/A NW5G16 30.53S $$ NCZ095-097-098-100-101-141500- SOUTHERN COAST CITY SKY/WX TMP DP RH WIND PRES REMARKS BEAUFORT SUNNY 24 5 44 N18G28 30.54S WCI 10 CEDAR ISLAND N/A 23 N/A N/A N14G32 30.59F WCI 11 JACKSONVILLE SUNNY 23 -2 33 NE13 30.56R WCI 11 PINEY ISLAND SUNNY N/A N/A N/A N20G26 30.56R WILMINGTON SUNNY 25 2 37 NE16 30.55R WCI 12 $$ NCZ011>013-027>030-043-044-078>080-089-090>093-098-141500- COASTAL PLAIN CITY SKY/WX TMP DP RH WIND PRES REMARKS AHOSKIE SUNNY 19 -2 39 N6 30.59S CLINTON MOSUNNY 23 1 39 NE6 30.57R ELIZABETHTOWN CLOUDY 24 0 34 NE6 30.55R GOLDSBORO SUNNY 21 -2 35 NE13 30.55R WCI 9 GREENVILLE SUNNY 21 1 42 NE9 30.58S HAVELOCK SUNNY 23 2 40 NE15 30.56R WCI 10 KENANSVILLE SUNNY 22 -1 35 NE3 30.58R KINSTON SUNNY 21 0 39 NE15 30.58R WCI 8 NEW BERN SUNNY 22 1 40 NE14 30.58R WCI 9 RICHLANDS SUNNY 23 1 39 NE13 30.56S WCI 11 ROCKY MOUNT SUNNY 20 -1 40 N10 30.59R WCI 9 WASHINGTON SUNNY 21 0 39 N12 30.58S WCI 9 WHITEVILLE CLOUDY 24 0 35 NE8 30.55R $$ AMZ130-135-150-152-154-156-158-170-250-252-270-ANZ085-086-088-633-658-670-141500- MARINE OBSERVATIONS STATION/POSITION TIME TEMP WIND PRES WAVE SWELL AIR SEA DIR/SP/G HT/PER HT/PER (UTC) (F) (DEG/KT/KT) (MB) (FT/S) (FT/S) CHESAPEAKE LIGHT 1400 18 340/ 20/ 22 1035.1 64 E VA BEACH 1350 24 50 350/ 19/ 25 1033.0 8/ 8 DUCK 1400 21 340/ 19/ 25 1033.6 2 E DUCK 1411 41 N/A 5/ 7 OREGON INLET 1400 22 38 340/ 12/ 18 1034.0 13E OREGON INLT 1400 44 N/A 7/ 7 HATTERAS CG 1400 23 38 350/ 20/ 25 1033.5 DIAMOND BUOY 1350 29 72 360/ 23/ 31 1033.2 6/ 7 CAPE LOOKOUT 1400 24 10/ 17/ 22 1033.8 BEAUFORT LAB 1400 23 40 20/ 15/ 23 1033.3 30 SE NEW RVR IN 1408 29 60 1032.8 30 SE NEW RVR IN 1325 60 N/A 5/ 5 27 SE WRIGHTSVLE 1408 31 59 40/ 17/ 25 1031.8 5 SE WRIGHTSVLE 1308 27 50 40/ 17/ 25 1033.8 225 S CAPE HAT 1350 48 67 350/ 16/ 19 N/A 8/ 9 7/ 9 41 SE CHARLESTON 1350 41 66 50/ 21/ 25 1030.5 6/ 6 $$

USA.gov is the U.S. government's official web portal to all federal, state and local government web resources and services.